User: anonymous   Login
Location: Caltech
(34.1382°N, 118.1253°W)
Time: 14:56:53
(UTC-08:00)
Language:

Cosmos 2237 Rocket - Orbit

View from above orbital plane
View from above orbital plane
View from above satellite
View from above satellite

Ground track
Ground track

The orbit data is extracted from the following two-line orbital elements,

1 22566U 93016B   15056.50701223 -.00000211  00000-0 -84537-4 0  9994
2 22566 071.0086 035.6692 0011749 325.2806 034.7549 14.14887655132078
Epoch (UTC): 25 February 2015 12:10:05
Eccentricity: 0.0011749
inclination: 71.0086°
perigee height: 834 km
apogee height: 851 km
right ascension of ascending node: 35.6692°
argument of perigee: 325.2806°
revolutions per day: 14.14887655
mean anomaly at epoch: 34.7549°
orbit number at epoch: 13207

The dashed part of the orbit path shows where the satellite is in the earth's shadow,  

DLR